TimeCST,TemperatureF,Dew PointF,Humidity,Sea Level PressureIn,VisibilityMPH,Wind Direction,Wind SpeedMPH,Gust SpeedMPH,PrecipitationIn,Events,Conditions,WindDirDegrees,DateUTC
12:15 AM,70.7,68.0,91,29.69,7.0,SE,19.6,25.3,N/A,,Overcast,140,2013-02-21 06:15:00
12:35 AM,70.7,68.0,91,29.69,7.0,SE,17.3,-,N/A,,Overcast,140,2013-02-21 06:35:00
12:55 AM,70.9,68.2,91,29.68,7.0,SSE,17.3,23.0,N/A,,Overcast,150,2013-02-21 06:55:00
1:15 AM,70.9,68.2,91,29.67,7.0,SE,21.9,-,N/A,,Overcast,140,2013-02-21 07:15:00
1:35 AM,71.4,68.5,91,29.67,7.0,SSE,18.4,25.3,N/A,,Overcast,150,2013-02-21 07:35:00
1:55 AM,71.2,68.5,91,29.66,7.0,SE,16.1,21.9,N/A,,Overcast,140,2013-02-21 07:55:00
2:15 AM,71.1,68.5,92,29.65,7.0,SE,17.3,21.9,N/A,,Overcast,140,2013-02-21 08:15:00
2:35 AM,70.7,68.4,92,29.64,7.0,SSE,16.1,24.2,N/A,,Overcast,150,2013-02-21 08:35:00
2:55 AM,70.7,68.5,93,29.64,7.0,SSE,15.0,21.9,N/A,,Overcast,150,2013-02-21 08:55:00
3:15 AM,70.5,68.4,93,29.63,7.0,SSE,15.0,23.0,N/A,,Overcast,150,2013-02-21 09:15:00
3:35 AM,70.7,68.4,92,29.63,7.0,SSE,17.3,-,N/A,,Overcast,150,2013-02-21 09:35:00
3:55 AM,70.7,68.4,92,29.62,7.0,SSE,17.3,23.0,N/A,,Overcast,160,2013-02-21 09:55:00
4:15 AM,71.1,68.7,92,29.61,7.0,SSE,18.4,26.5,N/A,,Overcast,160,2013-02-21 10:15:00
4:35 AM,71.1,68.7,92,29.61,7.0,SSE,20.7,26.5,N/A,,Overcast,160,2013-02-21 10:35:00
4:55 AM,71.1,68.9,93,29.60,7.0,SSE,21.9,28.8,N/A,,Overcast,160,2013-02-21 10:55:00
5:15 AM,71.2,68.9,92,29.61,7.0,SSE,21.9,27.6,N/A,,Overcast,160,2013-02-21 11:15:00
5:55 AM,71.6,68.9,91,29.60,7.0,South,21.9,32.2,N/A,,Overcast,170,2013-02-21 11:55:00
6:15 AM,71.6,68.9,91,29.60,7.0,South,25.3,34.5,N/A,,Overcast,170,2013-02-21 12:15:00
6:35 AM,71.2,68.9,92,29.61,7.0,South,20.7,35.7,N/A,,Overcast,170,2013-02-21 12:35:00
6:55 AM,71.2,68.9,92,29.62,7.0,South,24.2,33.4,N/A,,Overcast,170,2013-02-21 12:55:00
7:15 AM,71.6,68.7,91,29.63,5.0,South,20.7,32.2,N/A,,Overcast,170,2013-02-21 13:15:00
7:35 AM,71.1,68.4,91,29.63,5.0,South,21.9,33.4,N/A,,Overcast,180,2013-02-21 13:35:00
7:55 AM,71.1,68.4,91,29.64,5.0,South,23.0,33.4,N/A,,Overcast,180,2013-02-21 13:55:00
8:15 AM,71.4,68.4,90,29.64,5.0,South,20.7,29.9,N/A,,Overcast,180,2013-02-21 14:15:00
8:35 AM,72.0,68.7,89,29.65,7.0,South,19.6,32.2,N/A,,Mostly Cloudy,180,2013-02-21 14:35:00
8:55 AM,72.9,68.9,87,29.66,7.0,South,24.2,31.1,N/A,,Mostly Cloudy,170,2013-02-21 14:55:00
9:15 AM,73.2,68.9,86,29.66,7.0,South,25.3,35.7,N/A,,Mostly Cloudy,180,2013-02-21 15:15:00
9:35 AM,73.0,68.9,87,29.67,7.0,South,20.7,29.9,N/A,,Mostly Cloudy,180,2013-02-21 15:35:00
9:55 AM,73.6,68.9,85,29.67,7.0,South,19.6,25.3,N/A,,Scattered Clouds,180,2013-02-21 15:55:00
10:15 AM,75.2,69.4,82,29.67,7.0,South,18.4,28.8,N/A,,Mostly Cloudy,180,2013-02-21 16:15:00
10:35 AM,76.3,69.4,79,29.68,7.0,South,17.3,27.6,N/A,,Scattered Clouds,190,2013-02-21 16:35:00
10:55 AM,75.7,69.1,80,29.72,7.0,SW,11.5,17.3,N/A,,Mostly Cloudy,220,2013-02-21 16:55:00
11:15 AM,75.0,69.1,82,29.72,7.0,SSW,8.1,-,N/A,,Overcast,200,2013-02-21 17:15:00
11:35 AM,76.3,69.1,78,29.72,10.0,South,8.1,-,N/A,,Scattered Clouds,180,2013-02-21 17:35:00
11:55 AM,77.9,69.1,74,29.71,10.0,South,5.8,-,N/A,,Mostly Cloudy,170,2013-02-21 17:55:00
12:15 PM,79.3,69.4,72,29.71,10.0,SSW,3.5,-,N/A,,Scattered Clouds,210,2013-02-21 18:15:00
12:35 PM,79.3,69.3,71,29.71,10.0,Calm,Calm,-,N/A,,Mostly Cloudy,0,2013-02-21 18:35:00
12:55 PM,80.1,69.3,69,29.70,10.0,Calm,Calm,-,N/A,,Mostly Cloudy,0,2013-02-21 18:55:00
1:15 PM,81.5,68.0,63,29.69,10.0,West,6.9,-,N/A,,Scattered Clouds,280,2013-02-21 19:15:00
1:35 PM,82.0,67.1,60,29.68,10.0,NW,9.2,-,N/A,,Scattered Clouds,320,2013-02-21 19:35:00
1:55 PM,81.9,67.3,61,29.67,10.0,NW,4.6,-,N/A,,Scattered Clouds,310,2013-02-21 19:55:00
2:15 PM,82.0,66.0,58,29.68,10.0,NW,4.6,-,N/A,,Scattered Clouds,310,2013-02-21 20:15:00
2:55 PM,82.4,64.4,54,29.67,10.0,North,5.8,-,N/A,,Scattered Clouds,360,2013-02-21 20:55:00
3:15 PM,82.9,64.2,53,29.68,10.0,North,9.2,-,N/A,,Scattered Clouds,10,2013-02-21 21:15:00
3:35 PM,82.9,63.9,52,29.67,10.0,NNE,9.2,-,N/A,,Scattered Clouds,30,2013-02-21 21:35:00
3:55 PM,83.1,63.7,52,29.68,10.0,North,16.1,19.6,N/A,,Mostly Cloudy,360,2013-02-21 21:55:00
4:15 PM,80.8,57.7,45,29.69,10.0,North,19.6,24.2,N/A,,Scattered Clouds,360,2013-02-21 22:15:00
4:35 PM,79.0,55.2,44,29.70,10.0,North,17.3,23.0,N/A,,Clear,10,2013-02-21 22:35:00
4:55 PM,77.9,52.0,40,29.71,10.0,North,13.8,20.7,N/A,,Clear,360,2013-02-21 22:55:00
5:15 PM,77.4,50.2,38,29.71,10.0,North,16.1,-,N/A,,Clear,10,2013-02-21 23:15:00
5:35 PM,76.3,50.7,41,29.72,10.0,North,12.7,18.4,N/A,,Clear,10,2013-02-21 23:35:00
5:55 PM,75.4,50.5,42,29.73,10.0,North,11.5,18.4,N/A,,Clear,10,2013-02-21 23:55:00
6:15 PM,74.1,50.0,43,29.74,10.0,North,11.5,-,N/A,,Clear,10,2013-02-22 00:15:00
6:35 PM,72.9,50.7,46,29.75,10.0,North,10.4,-,N/A,,Clear,10,2013-02-22 00:35:00
6:55 PM,71.4,51.6,50,29.76,10.0,NNE,8.1,-,N/A,,Clear,30,2013-02-22 00:55:00
7:15 PM,69.8,52.9,55,29.77,10.0,ENE,6.9,-,N/A,,Clear,60,2013-02-22 01:15:00
7:35 PM,69.4,52.7,55,29.77,10.0,NE,5.8,-,N/A,,Scattered Clouds,50,2013-02-22 01:35:00
7:55 PM,68.5,52.0,55,29.78,10.0,ENE,5.8,-,N/A,,Mostly Cloudy,70,2013-02-22 01:55:00
8:15 PM,68.9,50.4,52,29.78,10.0,ENE,8.1,-,N/A,,Scattered Clouds,60,2013-02-22 02:15:00
8:35 PM,69.1,49.6,50,29.79,10.0,ENE,6.9,-,N/A,,Clear,60,2013-02-22 02:35:00
8:55 PM,68.7,50.0,51,29.79,10.0,ENE,6.9,-,N/A,,Clear,60,2013-02-22 02:55:00
9:15 PM,68.4,50.2,52,29.80,10.0,East,5.8,-,N/A,,Clear,80,2013-02-22 03:15:00
9:35 PM,68.5,51.8,55,29.81,10.0,East,8.1,-,N/A,,Scattered Clouds,80,2013-02-22 03:35:00
9:55 PM,68.9,54.3,60,29.81,10.0,ENE,9.2,-,N/A,,Scattered Clouds,70,2013-02-22 03:55:00
10:15 PM,69.1,52.7,56,29.80,10.0,ENE,9.2,-,N/A,,Clear,70,2013-02-22 04:15:00
10:35 PM,69.1,50.9,52,29.81,10.0,ENE,9.2,-,N/A,,Clear,70,2013-02-22 04:35:00
10:55 PM,69.1,51.6,54,29.81,10.0,ENE,10.4,-,N/A,,Clear,70,2013-02-22 04:55:00
11:15 PM,68.5,52.0,55,29.81,10.0,East,9.2,-,N/A,,Clear,80,2013-02-22 05:15:00
11:35 PM,68.2,52.7,58,29.81,10.0,East,6.9,-,N/A,,Clear,80,2013-02-22 05:35:00
11:55 PM,68.0,52.9,58,29.81,10.0,ENE,8.1,-,N/A,,Clear,70,2013-02-22 05:55:00